sat.trackr.live / text

‹ back to catalog

HULIANWANG JISHU SHIYAN*

NORAD 58693 · 2023-212C

PAYLOAD ACTIVE UNKNOWN

§ Identity

Operator
Country
PRC
Launch date
2023-12-30
Launch site
JSC
Launch vehicle
Mass (kg)
RCS (m²)

External: N2YO · Heavens-Above · Gunter

§ Orbital elements

Epoch: 2026-09-21T22:08:39.599520Z

Period
107.35 min
Inclination
50.0009°
Eccentricity
0.0000541
Mean motion
13.41465410 rev/d
Perigee alt
1,103.4 km
Apogee alt
1,104.2 km
Semi-major
7,482.0 km
B*
4.9288e-5
RAAN
349.8095°
Arg perigee
41.2103°
Mean anomaly
318.8816°
Rev number
13,424

§ Raw data

HULIANWANG JISHU SHIYAN*1 58693U 23212C   26264.92268055 -.00000101  00000+0  49288-4 0  99952 58693  50.0009 349.8095 0000541  41.2103 318.8816 13.41465410134244

JSON: /api/v1/satellites/58693 · /tle

For live sub-satellite position, see the globe view (requires WebGL).

§ Visibility from observer

Set your observer location to see the next 7 days of passes ≥ 10°. The values pass through the URL so the page stays shareable.

No JS? Fill the form by hand. The geolocation button needs JavaScript.